Flag for Germany

Past Weather in Herzogenrath, North Rhine-Westphalia, Germany — Yesterday and Last 2 Weeks

Now
59 °F

Drizzle. Broken clouds.


Feels Like: 58 °F
Forecast: 70 / 60 °F
Wind: 6 mph from Southwest

Location: Geilenkirchen Airport

Current Time: Jul 8, 2020 at 2:30:21 pm

Latest Report: Jul 8, 2020 at 1:50 pm


Visibility: N/A

Pressure: 30.01 "Hg

Humidity: 100%

Dew Point: 59 °F

Location of HerzogenrathLocation

Past Weather in Herzogenrath — Graph

°F

Herzogenrath Temperature Yesterday

Maximum temperature yesterday: 68 °F (at 1:50 pm)
Minimum temperature yesterday: 46 °F (at 5:50 am)
Average temperature yesterday: 60 °F

High & Low Weather Summary for the Past Weeks

 TemperatureHumidityPressure
High88 °F (Jun 26, 2:50 pm)100% (Jul 1, 4:50 am)30.27 "Hg (Jul 1, 4:50 am)
Low46 °F (Jul 7, 5:50 am)33% (Jun 24, 4:50 pm)29.74 "Hg (Jul 1, 4:50 am)
Average66 °F68%29.98 "Hg
* Reported Jun 23 12:50 pm — Jul 8 12:50 pm, Herzogenrath. Weather by CustomWeather, © 2020

Note: Actual official high and low records may vary slightly from our data, if they occured in-between our weather recording intervals... More about our weather records

Herzogenrath Weather History for the Previous 24 Hours

Scroll right to see more
 ConditionsComfort  
Time TempWeatherWind HumidityBarometerVisibility
12:50 pm
Wed, Jul 8
57 °FDrizzle. Broken clouds.6 mph94%30.01 "Hg5 mi
11:50 am57 °FDrizzle. Partly sunny.6 mph94%30.01 "HgN/A
10:50 am55 °FDrizzle. Partly sunny.6 mph94%30.01 "Hg5 mi
9:50 am55 °FDrizzle. Partly sunny.6 mph94%30.01 "HgN/A
8:50 am55 °FDrizzle. Partly sunny.5 mph94%30.01 "Hg5 mi
8:17 am54 °FDrizzle. Partly sunny.5 mph94%30.01 "HgN/A
7:50 am54 °FLight rain. Broken clouds.5 mph94%30.01 "HgN/A
6:50 am54 °FLight rain. Partly sunny.6 mph88%30.01 "HgN/A
5:50 am55 °FLight rain. Partly sunny.6 mph88%30.01 "HgN/A
4:50 am57 °FPassing clouds.9 mph77%30.01 "HgN/A
3:50 am59 °FPassing clouds.7 mph77%30.01 "HgN/A
2:50 am59 °FPassing clouds.2 mph82%30.01 "HgN/A
1:50 am57 °FLight rain. Partly cloudy.2 mph88%30.04 "HgN/A
12:50 am59 °FLight rain. Partly cloudy.5 mph82%30.04 "HgN/A
11:50 pm
Tue, Jul 7
61 °FLight rain. Passing clouds.2 mph72%30.04 "HgN/A
10:50 pm63 °FLight rain. Passing clouds.1 mph73%30.04 "HgN/A
9:50 pm63 °FLight rain. Partly cloudy.No wind73%30.07 "HgN/A
8:50 pm64 °FLight rain. Partly sunny.1 mph64%30.07 "HgN/A
7:50 pm66 °FSunny.5 mph56%30.07 "Hg10 mi
6:50 pm66 °FSunny.9 mph56%30.07 "Hg10 mi
5:50 pm68 °FSunny.8 mph53%30.09 "Hg10 mi
4:50 pm68 °FSunny.9 mph53%30.09 "Hg10 mi
3:50 pm68 °FSunny.10 mph53%30.09 "Hg10 mi
2:50 pm68 °FPartly sunny.16 mph53%30.12 "HgN/A
Weather by CustomWeather, © 2020

See weather overview